Flag for Germany Weather past 2 weeks in Greifswald, Mecklenburg-Western Pomerania, Germany

Now
44 °F

Partly sunny.


Feels Like: 43 °F
Forecast: 41 / 56 °F
Wind: 3 mph from North

Location: Greifswald

Current Time: Apr 28, 2015 at 7:26:37 AM

Latest Report: Apr 28, 2015 at 7:00 AM


Visibility: 19 mi

Pressure: 29.82 "Hg

Humidity: 84%

Dew point: 40 °F

Location of GreifswaldLocation

Historic Weather in Greifswald — Graph

°F

Greifswald temperature yesterday

Maximum temperature yesterday: 49 °F (at 4:00 PM)
Minimum temperature yesterday: 45 °F (at 8:00 AM)
Average temperature yesterday: 47 °F

Past Weeks' High & Low Weather Summary

 TemperatureHumidityPressure
High69 °F (Apr 15, 4:00 PM)100% (Apr 25, 3:00 AM)30.32 "Hg (Apr 25, 3:00 AM)
Low35 °F (Apr 18, 6:00 AM)38% (Apr 15, 4:00 PM)29.67 "Hg (Apr 27, 6:00 AM)
Average49 °F73%30.03 "Hg
* Reported Apr 13 6:00 AM — Apr 28 6:00 AM, Greifswald, Weather by CustomWeather, © 2015

Note: Actual official high and low records may vary slightly from our data, if they occured in-between our weather recording intervals... More about our weather records

Advertising

Greifswald weather history for previous 24 hours

 ConditionsComfort  
Time TempWeatherWind HumidityBarometerVisibility
6:00 AM
Tue, Apr 28
45 °FOvercast.5 mph82%29.79 "Hg19 mi
4:00 AM46 °FOvercast.3 mph75%29.78 "Hg28 mi
3:00 AM46 °FOvercast.5 mph73%29.77 "Hg31 mi
2:00 AM46 °FOvercast.3 mph80%29.77 "Hg22 mi
1:00 AM45 °FOvercast.2 mph81%29.77 "Hg19 mi
12:00 AM46 °FOvercast.2 mph83%29.77 "Hg12 mi
10:00 PM
Mon, Apr 27
46 °FOvercast.2 mph83%29.76 "Hg12 mi
9:00 PM46 °FOvercast.2 mph81%29.75 "Hg14 mi
8:00 PM47 °FPartly sunny.3 mph77%29.74 "Hg11 mi
7:00 PM48 °FOvercast.3 mph68%29.74 "Hg28 mi
6:00 PM48 °FOvercast.5 mph73%29.74 "Hg25 mi
4:00 PM49 °FOvercast.5 mph73%29.72 "Hg31 mi
3:00 PM46 °FLight rain. Overcast.5 mph84%29.72 "Hg16 mi
2:00 PM46 °FLight rain. Low clouds.5 mph90%29.71 "Hg9 mi
1:00 PM46 °FRain. Overcast.6 mph93%29.70 "Hg7 mi
12:00 PM46 °FRain. Low clouds.6 mph95%29.68 "Hg7 mi
10:00 AM46 °FRain. Low clouds.5 mph95%29.68 "Hg5 mi
9:00 AM46 °FRain. Low clouds.5 mph99%29.68 "Hg4 mi
8:00 AM45 °FRain. Low clouds.5 mph97%29.68 "Hg4 mi
7:00 AM45 °FRain. Low clouds.3 mph96%29.69 "Hg2 mi
Weather by CustomWeather, © 2015

See weather overviewHow to use our weather pages